Location: Augsburg
(48.3836°N, 10.8929°E)
Time: 17:56:51
(UTC+02:00)

ISS - Pass Details

Date: 20 May 2021
Orbit: 417 x 422 km, 51.6° (Epoch: 13 June)

Event Time Altitude Azimuth Distance (km) Brightness Sun altitude
Rises 22:54:36 0° 275° (W) 2,365 0.7 -14.8°
Reaches altitude 10° 22:56:45 10° 282° (WNW) 1,502 -0.3 -15.0°
Maximum altitude 23:00:01 46° 357° (N) 575 -2.7 -15.3°
Drops below altitude 10° 23:03:18 10° 73° (ENE) 1,506 -1.1 -15.6°
Enters shadow 23:04:17 - 76° (ENE) 1,898 -0.6 -15.7°
